TRA18A LPPT-EDDF

Flight info

Callsign TRA18A
Flight time N/A
Altitude 38000
Route LPPT IXID1N IXIDA DCT TOSDI DCT ZMR DCT NUBLO DCT RONSI DCT DELOG DCT PEXOD DCT DIDIG DCT TIRAV DCT ERJAZ DCT PIWIZ DCT TSU UN858 OQQAL DCT RANUX DCT VALEK DCT LIPNI DCT LIMGO Z111 RAMOB IMCO1A EDDF
Aircraft B738/M-L/FMC

Departure

Time 2026-05-06 07:55
Airport Lisbon Humberto Delgado Airport (LPPT)

Arrival

Time N/A
Airport Frankfurt Main Airport (EDDF)
Time Latitude Longitude Altitude Speed Heading
2026-05-06 07:31 38.76512 -9.13621 353 ft 0 kts 166°
2026-05-06 07:45 38.76514 -9.13621 347 ft 1 kts 166°
2026-05-06 07:46 38.76532 -9.13627 347 ft 3 kts 153°
2026-05-06 07:46 38.76546 -9.13640 347 ft 1 kts 119°
2026-05-06 07:46 38.76550 -9.13652 347 ft 1 kts 88°
2026-05-06 07:46 38.76548 -9.13668 347 ft 2 kts 81°
2026-05-06 07:47 38.76544 -9.13698 347 ft 0 kts 81°
2026-05-06 07:50 38.76552 -9.13679 346 ft 6 kts 54°
2026-05-06 07:50 38.76594 -9.13669 346 ft 7 kts 349°
2026-05-06 07:51 38.76617 -9.13712 351 ft 7 kts 269°
2026-05-06 07:51 38.76607 -9.13771 348 ft 7 kts 258°
2026-05-06 07:51 38.76598 -9.13828 353 ft 7 kts 258°
2026-05-06 07:51 38.76589 -9.13885 346 ft 6 kts 258°
2026-05-06 07:52 38.76580 -9.13940 350 ft 6 kts 258°
2026-05-06 07:52 38.76568 -9.13993 353 ft 6 kts 244°
2026-05-06 07:52 38.76535 -9.14046 355 ft 11 kts 230°
2026-05-06 07:52 38.76495 -9.14135 352 ft 12 kts 259°
2026-05-06 07:53 38.76513 -9.14233 345 ft 11 kts 291°
2026-05-06 07:53 38.76544 -9.14326 350 ft 12 kts 293°
2026-05-06 07:53 38.76594 -9.14410 339 ft 12 kts 351°
2026-05-06 07:53 38.76625 -9.14397 338 ft 0 kts 23°
2026-05-06 07:54 38.76827 -9.14288 346 ft 70 kts 22°
2026-05-06 07:54 38.77501 -9.13928 351 ft 138 kts 23°
2026-05-06 07:55 38.78567 -9.13362 470 ft 185 kts 20°
2026-05-06 07:55 38.79733 -9.12690 1498 ft 183 kts 25°
2026-05-06 07:55 38.80807 -9.11781 2390 ft 190 kts 31°
2026-05-06 07:55 38.82108 -9.11219 2634 ft 209 kts
2026-05-06 07:56 38.83469 -9.10411 2954 ft 224 kts 35°
2026-05-06 07:56 38.84760 -9.09244 3505 ft 230 kts 31°
2026-05-06 07:56 38.86125 -9.08157 4183 ft 230 kts 30°
2026-05-06 07:56 38.87539 -9.07071 4632 ft 248 kts 29°
2026-05-06 07:57 38.89048 -9.05929 5292 ft 255 kts 29°
2026-05-06 07:57 38.90516 -9.04594 5999 ft 261 kts 39°
2026-05-06 07:57 38.91858 -9.03058 6796 ft 263 kts 41°
2026-05-06 07:57 38.93215 -9.01435 7414 ft 271 kts 41°
2026-05-06 07:58 38.94599 -8.99775 8154 ft 272 kts 41°
2026-05-06 07:58 38.95910 -8.98212 8781 ft 279 kts 40°
2026-05-06 07:58 38.97343 -8.96517 9512 ft 282 kts 40°
2026-05-06 07:58 38.98806 -8.94792 10209 ft 286 kts 40°
2026-05-06 07:59 39.00308 -8.93029 10514 ft 306 kts 40°
2026-05-06 07:59 39.01947 -8.91111 10676 ft 328 kts 40°
2026-05-06 07:59 39.03699 -8.89061 10815 ft 350 kts 40°
2026-05-06 07:59 39.05528 -8.86918 10986 ft 370 kts 40°
2026-05-06 08:00 39.07484 -8.84626 11157 ft 387 kts 40°
2026-05-06 08:00 39.09491 -8.82270 11590 ft 395 kts 40°
2026-05-06 08:00 39.11548 -8.79853 12188 ft 399 kts 40°
2026-05-06 08:00 39.13590 -8.77454 12789 ft 402 kts 40°
2026-05-06 08:01 39.15683 -8.74996 13350 ft 406 kts 40°
2026-05-06 08:01 39.17767 -8.72472 13890 ft 412 kts 43°
2026-05-06 08:01 39.19727 -8.69751 14377 ft 417 kts 46°
2026-05-06 08:01 39.21621 -8.66931 14893 ft 420 kts 47°
2026-05-06 08:02 39.23527 -8.64038 15428 ft 424 kts 47°
2026-05-06 08:02 39.25466 -8.61102 15938 ft 427 kts 47°
2026-05-06 08:02 39.27398 -8.58206 16390 ft 432 kts 47°
2026-05-06 08:02 39.29389 -8.55245 16872 ft 435 kts 47°
2026-05-06 08:03 39.31378 -8.52304 17352 ft 439 kts 47°
2026-05-06 08:03 39.33388 -8.49342 17812 ft 442 kts 46°
2026-05-06 08:03 39.35445 -8.46313 18277 ft 446 kts 46°
2026-05-06 08:03 39.37482 -8.43312 18678 ft 449 kts 46°
2026-05-06 08:04 39.39562 -8.40244 19105 ft 452 kts 47°
2026-05-06 08:04 39.41641 -8.37173 19538 ft 454 kts 47°
2026-05-06 08:04 39.43729 -8.34086 19948 ft 457 kts 47°
2026-05-06 08:04 39.45816 -8.30997 20331 ft 460 kts 47°
2026-05-06 08:05 39.47943 -8.27846 20713 ft 463 kts 47°
2026-05-06 08:05 39.50052 -8.24717 21096 ft 465 kts 47°
2026-05-06 08:05 39.52193 -8.21538 21469 ft 468 kts 47°
2026-05-06 08:05 39.54340 -8.18347 21826 ft 471 kts 47°
2026-05-06 08:06 39.56501 -8.15132 22178 ft 474 kts 47°
2026-05-06 08:06 39.58657 -8.11918 22530 ft 476 kts 47°
2026-05-06 08:06 39.60851 -8.08647 22878 ft 478 kts 47°
2026-05-06 08:06 39.63042 -8.05378 23200 ft 481 kts 47°
2026-05-06 08:07 39.65220 -8.02125 23519 ft 484 kts 46°
2026-05-06 08:07 39.67534 -7.98886 23793 ft 485 kts 43°
2026-05-06 08:07 39.69946 -7.95792 24079 ft 486 kts 41°
2026-05-06 08:07 39.72403 -7.92761 24361 ft 487 kts 41°
2026-05-06 08:08 39.74872 -7.89744 24636 ft 489 kts 41°
2026-05-06 08:08 39.77324 -7.86732 24901 ft 491 kts 41°
2026-05-06 08:08 39.79832 -7.83622 25154 ft 493 kts 41°
2026-05-06 08:08 39.82292 -7.80543 25412 ft 495 kts 41°
2026-05-06 08:09 39.84779 -7.77407 25663 ft 496 kts 41°
2026-05-06 08:09 39.87257 -7.74269 25939 ft 496 kts 41°
2026-05-06 08:09 39.89689 -7.71178 26330 ft 494 kts 41°
2026-05-06 08:09 39.92160 -7.68034 26684 ft 492 kts 41°
2026-05-06 08:10 39.94606 -7.64920 26994 ft 492 kts 41°
2026-05-06 08:10 39.97069 -7.61783 27311 ft 492 kts 41°
2026-05-06 08:10 39.99493 -7.58695 27653 ft 491 kts 41°
2026-05-06 08:10 40.01955 -7.55554 28018 ft 490 kts 41°
2026-05-06 08:11 40.04394 -7.52440 28364 ft 489 kts 41°
2026-05-06 08:11 40.06807 -7.49356 28672 ft 489 kts 41°
2026-05-06 08:11 40.09241 -7.46243 28995 ft 488 kts 41°
2026-05-06 08:11 40.11657 -7.43148 29352 ft 487 kts 41°
2026-05-06 08:12 40.14095 -7.40023 29693 ft 487 kts 41°
2026-05-06 08:12 40.16526 -7.36903 30006 ft 487 kts 41°
2026-05-06 08:12 40.18915 -7.33834 30273 ft 487 kts 41°
2026-05-06 08:12 40.21315 -7.30747 30540 ft 486 kts 41°
2026-05-06 08:13 40.23749 -7.27614 30795 ft 486 kts 42°
2026-05-06 08:13 40.26147 -7.24523 31036 ft 486 kts 42°
2026-05-06 08:13 40.28570 -7.21397 31306 ft 485 kts 42°
2026-05-06 08:13 40.30960 -7.18310 31591 ft 484 kts 41°
2026-05-06 08:14 40.33346 -7.15225 31855 ft 484 kts 42°
2026-05-06 08:14 40.35736 -7.12132 32106 ft 484 kts 42°
2026-05-06 08:14 40.38151 -7.09003 32358 ft 483 kts 42°
2026-05-06 08:14 40.40520 -7.05930 32595 ft 483 kts 42°
2026-05-06 08:15 40.42918 -7.02816 32832 ft 482 kts 42°
2026-05-06 08:15 40.45303 -6.99717 33087 ft 482 kts 42°
2026-05-06 08:15 40.47665 -6.96644 33321 ft 481 kts 42°
2026-05-06 08:15 40.50064 -6.93519 33533 ft 482 kts 42°
2026-05-06 08:16 40.52423 -6.90443 33732 ft 482 kts 42°
2026-05-06 08:16 40.54820 -6.87315 33974 ft 481 kts 42°
2026-05-06 08:16 40.57177 -6.84234 34168 ft 481 kts 42°
2026-05-06 08:16 40.59565 -6.81111 34317 ft 481 kts 42°
2026-05-06 08:17 40.61935 -6.78008 34459 ft 482 kts 42°
2026-05-06 08:17 40.64326 -6.74874 34623 ft 482 kts 42°
2026-05-06 08:17 40.66687 -6.71776 34778 ft 482 kts 42°
2026-05-06 08:17 40.69067 -6.68649 34938 ft 482 kts 42°
2026-05-06 08:18 40.71442 -6.65525 35082 ft 482 kts 42°
2026-05-06 08:18 40.73823 -6.62391 35231 ft 483 kts 42°
2026-05-06 08:18 40.76187 -6.59276 35386 ft 483 kts 42°
2026-05-06 08:18 40.78572 -6.56129 35541 ft 482 kts 42°
2026-05-06 08:19 40.80928 -6.53018 35692 ft 482 kts 42°
2026-05-06 08:19 40.83292 -6.49892 35816 ft 483 kts 42°
2026-05-06 08:19 40.85667 -6.46748 35951 ft 483 kts 42°
2026-05-06 08:19 40.88032 -6.43614 36099 ft 482 kts 42°
2026-05-06 08:20 40.90407 -6.40463 36257 ft 482 kts 43°
2026-05-06 08:20 40.92791 -6.37297 36435 ft 481 kts 43°
2026-05-06 08:20 40.95122 -6.34198 36625 ft 480 kts 43°
2026-05-06 08:20 40.97499 -6.31035 36841 ft 479 kts 43°
2026-05-06 08:21 40.99844 -6.27947 37047 ft 476 kts 41°
2026-05-06 08:21 41.01444 -6.25953 37189 ft 474 kts 40°
2026-05-06 08:21 41.03906 -6.23001 37391 ft 472 kts 39°
2026-05-06 08:21 41.06365 -6.20112 37486 ft 473 kts 39°
2026-05-06 08:22 41.11311 -6.14304 37570 ft 477 kts 39°
2026-05-06 08:22 41.16256 -6.08420 37702 ft 479 kts 39°
2026-05-06 08:23 41.21239 -6.02439 37898 ft 480 kts 39°
2026-05-06 08:23 41.23702 -5.99476 38005 ft 480 kts 39°
2026-05-06 08:23 41.26188 -5.96481 38012 ft 481 kts 39°
2026-05-06 08:24 41.31133 -5.90518 38027 ft 483 kts 40°
2026-05-06 08:24 41.36125 -5.84487 38022 ft 485 kts 40°
2026-05-06 08:25 41.41142 -5.78413 38023 ft 486 kts 40°
2026-05-06 08:25 41.46142 -5.72346 38022 ft 486 kts 40°
2026-05-06 08:26 41.51157 -5.66295 38009 ft 485 kts 36°
2026-05-06 08:26 41.56834 -5.61630 38003 ft 477 kts 20°
2026-05-06 08:27 41.62967 -5.58236 38020 ft 477 kts 19°
2026-05-06 08:27 41.69104 -5.54885 38011 ft 477 kts 19°
2026-05-06 08:28 41.75219 -5.51471 38019 ft 476 kts 20°
2026-05-06 08:28 41.81315 -5.48019 38014 ft 476 kts 20°
2026-05-06 08:29 41.87402 -5.44557 38010 ft 475 kts 20°
2026-05-06 08:29 41.93502 -5.41082 38010 ft 475 kts 20°
2026-05-06 08:30 41.99566 -5.37623 38022 ft 474 kts 20°
2026-05-06 08:30 42.05643 -5.34150 38017 ft 474 kts 20°
2026-05-06 08:31 42.11740 -5.30658 38009 ft 474 kts 20°
2026-05-06 08:31 42.17794 -5.27183 38029 ft 473 kts 20°
2026-05-06 08:32 42.23830 -5.23712 38001 ft 473 kts 20°
2026-05-06 08:32 42.29876 -5.20227 38017 ft 472 kts 20°